{"data":{"norad_id":60339,"epoch":"2026-05-25T02:30:54.468576Z","epoch_age_seconds":72812,"freshness":"FRESH","line1":"1 60339U 24136L   26145.10479709  .00001003  00000+0  45978-4 0  9992","line2":"2 60339  53.1609  80.7553 0001250  85.3772 274.7372 15.30197667101363","mean_motion":15.30197667,"eccentricity":0.000125,"inclination_deg":53.1609,"raan_deg":80.7553,"arg_perigee_deg":85.3772,"mean_anomaly_deg":274.7372,"bstar":4.5978e-5,"rev_number":10136,"period_min":94.105489183183,"perigee_km":474.36536546623,"apogee_km":476.07870522507,"semimajor_km":6853.3590353456,"source":"CELESTRAK","updated_at":"2026-05-25T13:38:19.234603Z"}}